Biloxi, MS

7:19 AM CDT on July 24, 2017 (GMT -0500)
Keesler Air Force Base

Weather History for KBIX - July, 2014

Change the Weather History Date:

Sunday, July 20, 2014

  Actual Average Record
Temperature  
Mean Temperature 80 °F -  
Max Temperature 86 °F 90 °F 98 °F (2000)
Min Temperature 74 °F 74 °F 68 °F (1967)
Cooling Degree Days 15    
Growing Degree Days 30 (Base 50)    
Moisture  
Dew Point 75 °F    
Average Humidity 86    
Maximum Humidity 98    
Minimum Humidity 71    
Precipitation  
Precipitation 0.00 in - - ()
Sea Level Pressure  
Sea Level Pressure 30.00 in    
Wind  
Wind Speed 9 mph (SW)    
Max Wind Speed 31 mph    
Max Gust Speed 38 mph    
Visibility 10 miles    
Events Rain , Thunderstorm    
Averages and records for this station are not official NWS values.
T = Trace of Precipitation, MM = Missing Value Source: NWS Daily Summary

Daily Weather History Graph

Daily Weather History Graph

Search for Another Location

Airport or City:

Trip Planner

Search our weather history database for the weather conditions in past years. The results will help you decide how hot, cold, wet, or windy it might be!

Date:

Astronomy

Jul. 20, 2014 Rise Set
Actual Time 6:06 AM CDT 7:57 PM CDT
Civil Twilight 5:39 AM CDT 8:23 PM CDT
Nautical Twilight 5:07 AM CDT 8:56 PM CDT
Astronomical Twilight 4:33 AM CDT 9:30 PM CDT
Moon 1:09 AM CDT (7/20) 2:46 PM CDT (7/20)
Length of Visible Light 14h 43m
Length of Day
13h 50m
Waning Crescent, 33% of the Moon is Illuminated
Jul 20
Waning Crescent
Jul 26
New
Aug 3
First Quarter
Aug 10
Full
Aug 17
Last Quarter

Hourly Weather History & Observations

Time (CDT) Temp. Heat Index Dew Point Humidity Pressure Visibility Wind Dir Wind Speed Gust Speed Precip Events Conditions
12:08 AM 80.6 °F 88.1 °F 78.8 °F 94% 29.98 in 9.0 mi SSW 16.1 mph - N/A Rain Light Rain
12:16 AM 80.6 °F 88.1 °F 78.8 °F 94% 29.98 in 10.0 mi SW 15.0 mph - N/A   Mostly Cloudy
12:58 AM 79.5 °F - 77.7 °F 94% 29.99 in 10.0 mi WSW 4.6 mph - 0.00 in   Partly Cloudy
1:58 AM 78.1 °F - 76.5 °F 95% 29.98 in 10.0 mi WSW 2.3 mph - N/A   Clear
2:43 AM 77.0 °F - 75.2 °F 94% 29.97 in 10.0 mi Variable 3.5 mph - N/A   Mostly Cloudy
2:58 AM 77.5 °F - 75.4 °F 93% 29.98 in 10.0 mi Variable 2.3 mph - N/A   Mostly Cloudy
3:23 AM 77.0 °F - 73.4 °F 89% 29.96 in 10.0 mi NW 2.3 mph - N/A   Scattered Clouds
3:58 AM 76.6 °F - 73.9 °F 91% 29.98 in 10.0 mi Variable 1.2 mph - N/A   Partly Cloudy
4:58 AM 76.3 °F - 74.1 °F 93% 30.00 in 10.0 mi Variable 2.3 mph - N/A   Clear
5:58 AM 75.0 °F - 73.9 °F 96% 30.00 in 10.0 mi Variable 2.3 mph - N/A   Clear
6:33 AM 75.2 °F - 73.4 °F 94% 30.00 in 10.0 mi Variable 1.2 mph - N/A   Mostly Cloudy
6:58 AM 74.3 °F - 73.8 °F 98% 30.02 in 10.0 mi Variable 4.6 mph - N/A   Overcast
7:58 AM 75.6 °F - 73.8 °F 94% 30.04 in 10.0 mi Variable 2.3 mph - N/A   Overcast
8:03 AM 75.2 °F - 73.4 °F 94% 30.04 in 10.0 mi Variable 3.5 mph - N/A   Overcast
8:08 AM 75.2 °F - 73.4 °F 94% 30.04 in 10.0 mi North 2.3 mph - N/A   Mostly Cloudy
8:13 AM 77.0 °F - 73.4 °F 89% 30.04 in 10.0 mi North 3.5 mph - N/A   Scattered Clouds
8:58 AM 79.2 °F - 74.7 °F 86% 30.05 in 10.0 mi NNE 4.6 mph - N/A   Scattered Clouds
9:58 AM 81.1 °F 87.2 °F 75.0 °F 82% 30.04 in 10.0 mi Variable 2.3 mph - N/A   Partly Cloudy
10:58 AM 84.0 °F 91.9 °F 75.0 °F 74% 30.04 in 10.0 mi Variable 1.2 mph - N/A   Partly Cloudy
11:58 AM 85.5 °F 94.2 °F 75.2 °F 71% 30.05 in 10.0 mi South 5.8 mph - N/A   Scattered Clouds
12:58 PM 84.9 °F 94.9 °F 76.5 °F 76% 30.04 in 10.0 mi South 12.7 mph - N/A   Scattered Clouds
1:24 PM 86.0 °F 96.9 °F 77.0 °F 74% 30.02 in 10.0 mi SSE 12.7 mph - N/A Rain Light Rain
1:45 PM 86.0 °F 96.9 °F 77.0 °F 74% 30.02 in 10.0 mi South 13.8 mph - N/A   Partly Cloudy
1:58 PM 86.0 °F 95.5 °F 75.7 °F 71% 30.03 in 10.0 mi South 15.0 mph - 0.00 in   Scattered Clouds
2:48 PM 84.2 °F 94.1 °F 77.0 °F 79% 30.00 in 10.0 mi SSW 31.1 mph 38.0 mph N/A Thunderstorm Mostly Cloudy
2:51 PM 82.4 °F 89.5 °F 75.2 °F 79% 30.01 in 10.0 mi SW 25.3 mph 38.0 mph N/A Thunderstorm Mostly Cloudy
2:58 PM 81.7 °F 88.3 °F 75.4 °F 81% 30.02 in 10.0 mi SSW 27.6 mph 38.0 mph N/A   Mostly Cloudy
2:59 PM 80.6 °F 86.2 °F 75.2 °F 84% 30.01 in 9.0 mi SSW 28.8 mph 35.7 mph N/A Rain Light Rain
3:09 PM 77.0 °F - 73.4 °F 89% 30.01 in 7.0 mi SW 20.7 mph 28.8 mph N/A Rain Light Rain
3:15 PM 77.0 °F - 73.4 °F 89% 30.01 in 10.0 mi SW 18.4 mph 27.6 mph N/A   Overcast
3:58 PM 78.1 °F - 73.2 °F 85% 30.01 in 10.0 mi SSW 17.3 mph - 0.00 in   Mostly Cloudy
4:58 PM 78.4 °F - 74.1 °F 87% 30.00 in 10.0 mi SSW 11.5 mph - N/A   Mostly Cloudy
5:30 PM 78.8 °F - 75.2 °F 89% 29.97 in 10.0 mi SW 13.8 mph - N/A Rain Light Rain
5:43 PM 80.6 °F 85.4 °F 73.4 °F 79% 29.97 in 10.0 mi SW 15.0 mph 21.9 mph N/A   Overcast
5:58 PM 81.3 °F 86.8 °F 73.8 °F 78% 29.98 in 10.0 mi SW 13.8 mph 24.2 mph 0.00 in   Mostly Cloudy
6:23 PM 80.6 °F 85.4 °F 73.4 °F 79% 29.97 in 10.0 mi SW 13.8 mph 20.7 mph N/A   Overcast
6:58 PM 80.1 °F 84.8 °F 74.7 °F 83% 29.98 in 10.0 mi WSW 9.2 mph - N/A   Overcast
7:23 PM 80.6 °F 86.2 °F 75.2 °F 84% 29.97 in 10.0 mi Variable 5.8 mph - N/A   Overcast
7:43 PM 80.6 °F 86.2 °F 75.2 °F 84% 29.97 in 10.0 mi SW 10.4 mph - N/A   Overcast
7:48 PM 80.6 °F 86.2 °F 75.2 °F 84% 29.97 in 10.0 mi WSW 8.1 mph - N/A   Overcast
7:53 PM 80.6 °F 86.2 °F 75.2 °F 84% 29.97 in 10.0 mi SW 8.1 mph - N/A   Overcast
7:58 PM 79.9 °F - 74.7 °F 84% 29.97 in 10.0 mi SW 8.1 mph - N/A   Mostly Cloudy
8:03 PM 78.8 °F - 75.2 °F 89% 29.96 in 10.0 mi SW 4.6 mph - N/A   Mostly Cloudy
8:13 PM 78.8 °F - 75.2 °F 89% 29.96 in 10.0 mi WSW 2.3 mph - N/A   Mostly Cloudy
8:58 PM 78.4 °F - 74.3 °F 87% 29.97 in 10.0 mi SW 3.5 mph - N/A   Clear
9:58 PM 77.0 °F - 74.1 °F 91% 29.98 in 10.0 mi Calm Calm - N/A   Clear
10:58 PM 77.2 °F - 74.7 °F 92% 29.98 in 10.0 mi WSW 2.3 mph - N/A   Clear
11:58 PM 77.2 °F - 74.7 °F 92% 29.99 in 10.0 mi West 2.3 mph - N/A   Clear